Year,Month,Day,Hour,Minute,Value (Times are PST for temperature in C)
2010,07,17,00,00,11.80
2010,07,17,00,01,11.80
2010,07,17,00,02,11.80
2010,07,17,00,03,11.80
2010,07,17,00,04,11.80
2010,07,17,00,05,11.80
2010,07,17,00,06,11.80
2010,07,17,00,07,11.80
2010,07,17,00,08,11.80
2010,07,17,00,09,11.80
2010,07,17,00,10,11.70
2010,07,17,00,11,11.70
2010,07,17,00,12,11.70
2010,07,17,00,13,11.70
2010,07,17,00,14,11.70
2010,07,17,00,15,11.70
2010,07,17,00,16,11.70
2010,07,17,00,17,11.60
2010,07,17,00,18,11.60
2010,07,17,00,19,11.60
2010,07,17,00,20,11.60
2010,07,17,00,21,11.60
2010,07,17,00,22,11.60
2010,07,17,00,23,11.60
2010,07,17,00,24,11.60
2010,07,17,00,25,11.60
2010,07,17,00,26,11.60
2010,07,17,00,27,11.60
2010,07,17,00,28,11.50
2010,07,17,00,29,11.50
2010,07,17,00,30,11.50
2010,07,17,00,31,11.50
2010,07,17,00,32,11.50
2010,07,17,00,33,11.50
2010,07,17,00,34,11.40
2010,07,17,00,35,11.40
2010,07,17,00,36,11.40
2010,07,17,00,37,11.40
2010,07,17,00,38,11.40
2010,07,17,00,39,11.40
2010,07,17,00,40,11.40
2010,07,17,00,41,11.40
2010,07,17,00,42,11.40
2010,07,17,00,43,11.40
2010,07,17,00,44,11.40
2010,07,17,00,45,11.40
2010,07,17,00,46,11.40
2010,07,17,00,47,11.30
2010,07,17,00,48,11.30
2010,07,17,00,49,11.30
2010,07,17,00,50,11.30
2010,07,17,00,51,11.30
2010,07,17,00,52,11.30
2010,07,17,00,53,11.30
2010,07,17,00,54,11.30
2010,07,17,00,55,11.30
2010,07,17,00,56,11.30
2010,07,17,00,57,11.30
2010,07,17,00,58,11.30
2010,07,17,00,59,11.30
2010,07,17,01,00,11.30
2010,07,17,01,01,11.30
2010,07,17,01,02,11.20
2010,07,17,01,03,11.20
2010,07,17,01,04,11.20
2010,07,17,01,05,11.20
2010,07,17,01,06,11.20
2010,07,17,01,07,11.20
2010,07,17,01,08,11.20
2010,07,17,01,09,11.10
2010,07,17,01,10,11.20
2010,07,17,01,11,11.20
2010,07,17,01,12,11.20
2010,07,17,01,13,11.20
2010,07,17,01,14,11.20
2010,07,17,01,15,11.20
2010,07,17,01,16,11.20
2010,07,17,01,17,11.20
2010,07,17,01,18,11.20
2010,07,17,01,19,11.10
2010,07,17,01,20,11.10
2010,07,17,01,21,11.10
2010,07,17,01,22,11.10
2010,07,17,01,23,11.10
2010,07,17,01,24,11.10
2010,07,17,01,25,11.10
2010,07,17,01,26,11.10
2010,07,17,01,27,11.10
2010,07,17,01,28,11.10
2010,07,17,01,29,11.10
2010,07,17,01,30,11.10
2010,07,17,01,31,11.00
2010,07,17,01,32,11.00
2010,07,17,01,33,11.00
2010,07,17,01,34,11.00
2010,07,17,01,35,11.00
2010,07,17,01,36,11.00
2010,07,17,01,37,11.00
2010,07,17,01,38,11.00
2010,07,17,01,39,11.00
2010,07,17,01,40,11.00
2010,07,17,01,41,11.00
2010,07,17,01,42,11.00
2010,07,17,01,43,11.00
2010,07,17,01,44,11.00
2010,07,17,01,45,11.00
2010,07,17,01,46,11.00
2010,07,17,01,47,11.00
2010,07,17,01,48,11.00
2010,07,17,01,49,11.00
2010,07,17,01,50,11.00
2010,07,17,01,51,11.00
2010,07,17,01,52,11.00
2010,07,17,01,53,11.00
2010,07,17,01,54,10.90
2010,07,17,01,55,10.90
2010,07,17,01,56,10.90
2010,07,17,01,57,10.90
2010,07,17,01,58,10.90
2010,07,17,01,59,10.90
2010,07,17,02,00,11.00
2010,07,17,02,01,11.00
2010,07,17,02,02,11.00
2010,07,17,02,03,11.00
2010,07,17,02,04,11.00
2010,07,17,02,05,11.00
2010,07,17,02,06,11.00
2010,07,17,02,07,11.00
2010,07,17,02,08,11.00
2010,07,17,02,09,11.00
2010,07,17,02,10,11.00
2010,07,17,02,11,11.00
2010,07,17,02,12,11.00
2010,07,17,02,13,11.00
2010,07,17,02,14,11.00
2010,07,17,02,15,11.00
2010,07,17,02,16,11.00
2010,07,17,02,17,11.00
2010,07,17,02,18,11.00
2010,07,17,02,19,11.00
2010,07,17,02,20,11.00
2010,07,17,02,21,11.00
2010,07,17,02,22,11.00
2010,07,17,02,23,11.00
2010,07,17,02,24,11.00
2010,07,17,02,25,11.00
2010,07,17,02,26,11.00
2010,07,17,02,27,10.90
2010,07,17,02,28,10.90
2010,07,17,02,29,10.90
2010,07,17,02,30,10.90
2010,07,17,02,31,10.90
2010,07,17,02,32,10.90
2010,07,17,02,33,10.90
2010,07,17,02,34,10.90
2010,07,17,02,35,10.90
2010,07,17,02,36,10.90
2010,07,17,02,37,10.90
2010,07,17,02,38,10.90
2010,07,17,02,39,10.90
2010,07,17,02,40,10.90
2010,07,17,02,41,10.90
2010,07,17,02,42,10.90
2010,07,17,02,43,10.90
2010,07,17,02,44,10.90
2010,07,17,02,45,10.90
2010,07,17,02,46,10.90
2010,07,17,02,47,10.80
2010,07,17,02,48,10.80
2010,07,17,02,49,10.80
2010,07,17,02,50,10.80
2010,07,17,02,51,10.80
2010,07,17,02,52,10.80
2010,07,17,02,53,10.80
2010,07,17,02,54,10.80
2010,07,17,02,55,10.90
2010,07,17,02,56,10.90
2010,07,17,02,57,10.90
2010,07,17,02,58,10.90
2010,07,17,02,59,10.90
2010,07,17,03,00,10.90
2010,07,17,03,01,10.90
2010,07,17,03,02,10.90
2010,07,17,03,03,10.90
2010,07,17,03,04,10.90
2010,07,17,03,05,10.90
2010,07,17,03,06,10.90
2010,07,17,03,07,10.90
2010,07,17,03,08,10.90
2010,07,17,03,09,10.90
2010,07,17,03,10,10.90
2010,07,17,03,11,10.90
2010,07,17,03,12,10.90
2010,07,17,03,13,10.80
2010,07,17,03,14,10.80
2010,07,17,03,15,10.80
2010,07,17,03,16,10.80
2010,07,17,03,17,10.80
2010,07,17,03,18,10.80
2010,07,17,03,19,10.90
2010,07,17,03,20,10.90
2010,07,17,03,21,10.90
2010,07,17,03,22,10.90
2010,07,17,03,23,10.90
2010,07,17,03,24,10.90
2010,07,17,03,25,10.90
2010,07,17,03,26,11.00
2010,07,17,03,27,11.00
2010,07,17,03,28,11.00
2010,07,17,03,29,11.00
2010,07,17,03,30,11.00
2010,07,17,03,31,11.00
2010,07,17,03,32,11.00
2010,07,17,03,33,11.10
2010,07,17,03,34,11.10
2010,07,17,03,35,11.10
2010,07,17,03,36,11.10
2010,07,17,03,37,11.10
2010,07,17,03,38,11.10
2010,07,17,03,39,11.10
2010,07,17,03,40,11.10
2010,07,17,03,41,11.10
2010,07,17,03,42,11.10
2010,07,17,03,43,11.10
2010,07,17,03,44,11.10
2010,07,17,03,49,11.00
2010,07,17,03,50,11.00
2010,07,17,03,51,11.00
2010,07,17,03,52,11.00
2010,07,17,03,53,11.00
2010,07,17,03,54,11.00
2010,07,17,03,55,11.00
2010,07,17,03,56,11.00
2010,07,17,03,57,11.00
2010,07,17,03,58,11.00
2010,07,17,03,59,11.00
2010,07,17,04,00,11.00
2010,07,17,04,01,11.00
2010,07,17,04,02,10.90
2010,07,17,04,03,10.90
2010,07,17,04,04,10.90
2010,07,17,04,05,10.90
2010,07,17,04,06,10.90
2010,07,17,04,07,10.90
2010,07,17,04,08,10.90
2010,07,17,04,09,10.90
2010,07,17,04,10,10.90
2010,07,17,04,11,10.80
2010,07,17,04,12,10.80
2010,07,17,04,13,10.80
2010,07,17,04,14,10.80
2010,07,17,04,15,10.80
2010,07,17,04,16,10.80
2010,07,17,04,17,10.80
2010,07,17,04,18,10.80
2010,07,17,04,19,10.80
2010,07,17,04,20,10.80
2010,07,17,04,21,10.80
2010,07,17,04,22,10.80
2010,07,17,04,23,10.80
2010,07,17,04,24,10.80
2010,07,17,04,25,10.80
2010,07,17,04,26,10.80
2010,07,17,04,27,10.80
2010,07,17,04,28,10.80
2010,07,17,04,29,10.80
2010,07,17,04,30,10.80
2010,07,17,04,31,10.80
2010,07,17,04,32,10.80
2010,07,17,04,33,10.70
2010,07,17,04,34,10.70
2010,07,17,04,35,10.70
2010,07,17,04,36,10.70
2010,07,17,04,37,10.70
2010,07,17,04,38,10.70
2010,07,17,04,39,10.60
2010,07,17,04,40,10.60
2010,07,17,04,41,10.60
2010,07,17,04,42,10.60
2010,07,17,04,43,10.60
2010,07,17,04,44,10.60
2010,07,17,04,45,10.60
2010,07,17,04,46,10.60
2010,07,17,04,47,10.50
2010,07,17,04,48,10.50
2010,07,17,04,49,10.50
2010,07,17,04,50,10.50
2010,07,17,04,51,10.50
2010,07,17,04,52,10.40
2010,07,17,04,53,10.40
2010,07,17,04,54,10.40
2010,07,17,04,55,10.40
2010,07,17,04,56,10.40
2010,07,17,04,57,10.40
2010,07,17,04,58,10.40
2010,07,17,04,59,10.40
2010,07,17,05,00,10.40
2010,07,17,05,01,10.40
2010,07,17,05,02,10.40
2010,07,17,05,03,10.40
2010,07,17,05,04,10.40
2010,07,17,05,05,10.40
2010,07,17,05,06,10.40
2010,07,17,05,07,10.40
2010,07,17,05,08,10.30
2010,07,17,05,09,10.30
2010,07,17,05,10,10.30
2010,07,17,05,11,10.30
2010,07,17,05,12,10.30
2010,07,17,05,13,10.30
2010,07,17,05,14,10.30
2010,07,17,05,15,10.30
2010,07,17,05,16,10.30
2010,07,17,05,17,10.30
2010,07,17,05,18,10.30
2010,07,17,05,19,10.20
2010,07,17,05,20,10.20
2010,07,17,05,21,10.20
2010,07,17,05,22,10.20
2010,07,17,05,23,10.20
2010,07,17,05,24,10.20
2010,07,17,05,25,10.20
2010,07,17,05,26,10.20
2010,07,17,05,27,10.20
2010,07,17,05,28,10.10
2010,07,17,05,29,10.10
2010,07,17,05,30,10.10
2010,07,17,05,31,10.10
2010,07,17,05,32,10.10
2010,07,17,05,33,10.10
2010,07,17,05,34,10.10
2010,07,17,05,35,10.10
2010,07,17,05,36,10.10
2010,07,17,05,37,10.10
2010,07,17,05,38,10.10
2010,07,17,05,39,10.10
2010,07,17,05,40,10.10
2010,07,17,05,41,10.10
2010,07,17,05,42,10.10
2010,07,17,05,43,10.10
2010,07,17,05,44,10.10
2010,07,17,05,45,10.10
2010,07,17,05,46,10.10
2010,07,17,05,47,10.10
2010,07,17,05,48,10.00
2010,07,17,05,49,10.00
2010,07,17,05,50,10.00
2010,07,17,05,51,10.00
2010,07,17,05,52,10.00
2010,07,17,05,53,10.00
2010,07,17,05,54,10.00
2010,07,17,05,55,9.90
2010,07,17,05,56,9.90
2010,07,17,05,57,9.90
2010,07,17,05,58,9.90
2010,07,17,05,59,9.90
2010,07,17,06,00,9.90
2010,07,17,06,01,9.90
2010,07,17,06,02,9.90
2010,07,17,06,03,9.90
2010,07,17,06,04,9.90
2010,07,17,06,05,9.90
2010,07,17,06,06,9.90
2010,07,17,06,07,10.00
2010,07,17,06,08,10.00
2010,07,17,06,09,10.00
2010,07,17,06,10,10.10
2010,07,17,06,11,10.10
2010,07,17,06,12,10.10
2010,07,17,06,13,10.10
2010,07,17,06,14,10.10
2010,07,17,06,15,10.10
2010,07,17,06,16,10.10
2010,07,17,06,17,10.10
2010,07,17,06,18,10.20
2010,07,17,06,19,10.20
2010,07,17,06,20,10.20
2010,07,17,06,21,10.20
2010,07,17,06,22,10.20
2010,07,17,06,23,10.20
2010,07,17,06,24,10.20
2010,07,17,06,25,10.20
2010,07,17,06,26,10.30
2010,07,17,06,27,10.30
2010,07,17,06,28,10.40
2010,07,17,06,29,10.40
2010,07,17,06,30,10.40
2010,07,17,06,31,10.50
2010,07,17,06,32,10.50
2010,07,17,06,33,10.60
2010,07,17,06,34,10.60
2010,07,17,06,35,10.60
2010,07,17,06,36,10.60
2010,07,17,06,37,10.60
2010,07,17,06,38,10.60
2010,07,17,06,39,10.60
2010,07,17,06,40,10.60
2010,07,17,06,41,10.60
2010,07,17,06,42,10.60
2010,07,17,06,43,10.70
2010,07,17,06,44,10.70
2010,07,17,06,45,10.80
2010,07,17,06,46,10.90
2010,07,17,06,47,10.90
2010,07,17,06,48,11.00
2010,07,17,06,49,11.00
2010,07,17,06,50,11.10
2010,07,17,06,51,11.10
2010,07,17,06,52,11.10
2010,07,17,06,53,11.10
2010,07,17,06,54,11.20
2010,07,17,06,55,11.20
2010,07,17,06,56,11.20
2010,07,17,06,57,11.30
2010,07,17,06,58,11.30
2010,07,17,06,59,11.40
2010,07,17,07,00,11.40
2010,07,17,07,01,11.50
2010,07,17,07,02,11.50
2010,07,17,07,03,11.60
2010,07,17,07,04,11.60
2010,07,17,07,05,11.60
2010,07,17,07,06,11.70
2010,07,17,07,07,11.70
2010,07,17,07,08,11.70
2010,07,17,07,09,11.80
2010,07,17,07,10,11.80
2010,07,17,07,11,11.90
2010,07,17,07,12,11.90
2010,07,17,07,13,12.00
2010,07,17,07,14,12.10
2010,07,17,07,15,12.20
2010,07,17,07,16,12.30
2010,07,17,07,17,12.40
2010,07,17,07,18,12.50
2010,07,17,07,19,12.70
2010,07,17,07,20,12.80
2010,07,17,07,21,12.90
2010,07,17,07,22,13.00
2010,07,17,07,23,13.20
2010,07,17,07,24,13.30
2010,07,17,07,25,13.40
2010,07,17,07,26,13.50
2010,07,17,07,27,13.60
2010,07,17,07,28,13.80
2010,07,17,07,29,13.90
2010,07,17,07,30,14.00
2010,07,17,07,31,14.10
2010,07,17,07,32,14.20
2010,07,17,07,33,14.30
2010,07,17,07,34,14.40
2010,07,17,07,35,14.50
2010,07,17,07,36,14.70
2010,07,17,07,37,14.80
2010,07,17,07,38,15.00
2010,07,17,07,39,15.00
2010,07,17,07,40,15.00
2010,07,17,07,41,15.20
2010,07,17,07,42,15.30
2010,07,17,07,43,15.40
2010,07,17,07,44,15.40
2010,07,17,07,45,15.50
2010,07,17,07,46,15.60
2010,07,17,07,47,15.70
2010,07,17,07,48,15.80
2010,07,17,07,49,15.90
2010,07,17,07,50,16.00
2010,07,17,07,51,16.10
2010,07,17,07,52,16.20
2010,07,17,07,53,16.40
2010,07,17,07,54,16.50
2010,07,17,07,55,16.50
2010,07,17,07,56,16.50
2010,07,17,07,57,16.50
2010,07,17,07,58,16.50
2010,07,17,07,59,16.60
2010,07,17,08,00,16.60
2010,07,17,08,01,16.70
2010,07,17,08,02,16.80
2010,07,17,08,03,16.90
2010,07,17,08,04,17.00
2010,07,17,08,05,17.00
2010,07,17,08,06,17.10
2010,07,17,08,07,17.10
2010,07,17,08,08,17.10
2010,07,17,08,09,17.10
2010,07,17,08,10,17.10
2010,07,17,08,11,17.10
2010,07,17,08,12,17.10
2010,07,17,08,13,17.10
2010,07,17,08,14,17.10
2010,07,17,08,15,17.10
2010,07,17,08,16,17.10
2010,07,17,08,17,17.10
2010,07,17,08,18,17.20
2010,07,17,08,19,17.30
2010,07,17,08,20,17.30
2010,07,17,08,21,17.30
2010,07,17,08,22,17.30
2010,07,17,08,23,17.40
2010,07,17,08,24,17.40
2010,07,17,08,25,17.40
2010,07,17,08,26,17.50
2010,07,17,08,27,17.60
2010,07,17,08,28,17.60
2010,07,17,08,29,17.70
2010,07,17,08,30,17.80
2010,07,17,08,31,17.80
2010,07,17,08,32,17.90
2010,07,17,08,33,17.90
2010,07,17,08,34,17.90
2010,07,17,08,35,18.00
2010,07,17,08,36,18.00
2010,07,17,08,37,18.10
2010,07,17,08,38,18.10
2010,07,17,08,39,18.20
2010,07,17,08,40,18.20
2010,07,17,08,41,18.20
2010,07,17,08,42,18.20
2010,07,17,08,43,18.20
2010,07,17,08,44,18.20
2010,07,17,08,45,18.10
2010,07,17,08,46,18.10
2010,07,17,08,47,18.00
2010,07,17,08,48,18.00
2010,07,17,08,49,18.00
2010,07,17,08,50,18.00
2010,07,17,08,51,17.90
2010,07,17,08,52,17.90
2010,07,17,08,53,17.90
2010,07,17,08,54,17.90
2010,07,17,08,55,17.90
2010,07,17,08,56,17.90
2010,07,17,08,57,17.90
2010,07,17,08,58,18.00
2010,07,17,08,59,18.00
2010,07,17,09,00,18.10
2010,07,17,09,01,18.10
2010,07,17,09,02,18.20
2010,07,17,09,03,18.20
2010,07,17,09,04,18.30
2010,07,17,09,05,18.30
2010,07,17,09,06,18.30
2010,07,17,09,07,18.30
2010,07,17,09,08,18.20
2010,07,17,09,09,18.10
2010,07,17,09,10,18.00
2010,07,17,09,11,18.00
2010,07,17,09,12,18.00
2010,07,17,09,13,17.90
2010,07,17,09,14,17.90
2010,07,17,09,15,17.90
2010,07,17,09,16,17.90
2010,07,17,09,17,17.80
2010,07,17,09,18,17.80
2010,07,17,09,19,17.80
2010,07,17,09,20,17.70
2010,07,17,09,21,17.70
2010,07,17,09,22,17.60
2010,07,17,09,23,17.60
2010,07,17,09,24,17.70
2010,07,17,09,25,17.70
2010,07,17,09,26,17.70
2010,07,17,09,27,17.80
2010,07,17,09,28,17.90
2010,07,17,09,29,18.00
2010,07,17,09,30,18.00
2010,07,17,09,31,17.90
2010,07,17,09,32,17.90
2010,07,17,09,33,17.90
2010,07,17,09,34,17.90
2010,07,17,09,35,17.90
2010,07,17,09,36,18.00
2010,07,17,09,37,18.20
2010,07,17,09,38,18.30
2010,07,17,09,39,18.40
2010,07,17,09,40,18.40
2010,07,17,09,41,18.50
2010,07,17,09,42,18.50
2010,07,17,09,43,18.40
2010,07,17,09,44,18.40
2010,07,17,09,45,18.40
2010,07,17,09,46,18.40
2010,07,17,09,47,18.40
2010,07,17,09,48,18.50
2010,07,17,09,49,18.60
2010,07,17,09,50,18.70
2010,07,17,09,51,18.80
2010,07,17,09,52,18.90
2010,07,17,09,53,18.90
2010,07,17,09,54,18.90
2010,07,17,09,55,19.00
2010,07,17,09,56,19.00
2010,07,17,09,57,19.00
2010,07,17,09,58,19.00
2010,07,17,09,59,19.00
2010,07,17,10,00,19.00
2010,07,17,10,01,19.10
2010,07,17,10,02,19.20
2010,07,17,10,03,19.30
2010,07,17,10,04,19.40
2010,07,17,10,05,19.50
2010,07,17,10,06,19.50
2010,07,17,10,07,19.60
2010,07,17,10,08,19.50
2010,07,17,10,09,19.50
2010,07,17,10,10,19.40
2010,07,17,10,11,19.30
2010,07,17,10,12,19.20
2010,07,17,10,13,19.10
2010,07,17,10,14,18.90
2010,07,17,10,15,18.70
2010,07,17,10,16,18.50
2010,07,17,10,17,18.40
2010,07,17,10,18,18.40
2010,07,17,10,19,18.30
2010,07,17,10,20,18.30
2010,07,17,10,21,18.30
2010,07,17,10,22,18.30
2010,07,17,10,23,18.40
2010,07,17,10,24,18.40
2010,07,17,10,25,18.50
2010,07,17,10,26,18.60
2010,07,17,10,27,18.70
2010,07,17,10,28,18.80
2010,07,17,10,29,18.90
2010,07,17,10,30,18.90
2010,07,17,10,31,18.80
2010,07,17,10,32,18.70
2010,07,17,10,33,18.60
2010,07,17,10,34,18.60
2010,07,17,10,35,18.60
2010,07,17,10,36,18.70
2010,07,17,10,37,18.70
2010,07,17,10,38,18.80
2010,07,17,10,39,18.90
2010,07,17,10,40,18.90
2010,07,17,10,41,18.80
2010,07,17,10,42,18.60
2010,07,17,10,43,18.40
2010,07,17,10,44,18.30
2010,07,17,10,45,18.20
2010,07,17,10,46,18.10
2010,07,17,10,47,18.10
2010,07,17,10,48,18.20
2010,07,17,10,49,18.40
2010,07,17,10,50,18.50
2010,07,17,10,51,18.70
2010,07,17,10,52,18.80
2010,07,17,10,53,18.90
2010,07,17,10,54,19.00
2010,07,17,10,55,19.00
2010,07,17,10,56,19.10
2010,07,17,10,57,19.10
2010,07,17,10,58,19.20
2010,07,17,10,59,19.10
2010,07,17,11,00,19.00
2010,07,17,11,01,19.00
2010,07,17,11,02,19.00
2010,07,17,11,03,18.90
2010,07,17,11,04,18.90
2010,07,17,11,05,18.90
2010,07,17,11,06,18.90
2010,07,17,11,07,18.80
2010,07,17,11,08,18.80
2010,07,17,11,09,18.90
2010,07,17,11,10,18.90
2010,07,17,11,11,18.80
2010,07,17,11,12,18.80
2010,07,17,11,13,18.80
2010,07,17,11,14,18.80
2010,07,17,11,15,18.80
2010,07,17,11,16,18.70
2010,07,17,11,17,18.60
2010,07,17,11,18,18.60
2010,07,17,11,19,18.70
2010,07,17,11,20,18.70
2010,07,17,11,21,18.70
2010,07,17,11,22,18.80
2010,07,17,11,23,18.80
2010,07,17,11,24,18.90
2010,07,17,11,25,19.00
2010,07,17,11,26,19.10
2010,07,17,11,27,19.20
2010,07,17,11,28,19.20
2010,07,17,11,29,19.20
2010,07,17,11,30,19.30
2010,07,17,11,31,19.20
2010,07,17,11,32,19.20
2010,07,17,11,33,19.00
2010,07,17,11,34,18.80
2010,07,17,11,35,18.70
2010,07,17,11,36,18.70
2010,07,17,11,37,18.90
2010,07,17,11,38,19.00
2010,07,17,11,39,19.10
2010,07,17,11,40,19.10
2010,07,17,11,41,19.10
2010,07,17,11,42,19.20
2010,07,17,11,43,19.20
2010,07,17,11,44,19.40
2010,07,17,11,45,19.50
2010,07,17,11,46,19.50
2010,07,17,11,47,19.60
2010,07,17,11,48,19.70
2010,07,17,11,49,19.70
2010,07,17,11,50,19.70
2010,07,17,11,51,19.60
2010,07,17,11,52,19.60
2010,07,17,11,53,19.50
2010,07,17,11,54,19.50
2010,07,17,11,55,19.50
2010,07,17,11,56,19.40
2010,07,17,11,57,19.40
2010,07,17,11,58,19.40
2010,07,17,11,59,19.40
2010,07,17,12,00,19.40
2010,07,17,12,01,19.40
2010,07,17,12,02,19.30
2010,07,17,12,03,19.30
2010,07,17,12,04,19.40
2010,07,17,12,05,19.50
2010,07,17,12,06,19.60
2010,07,17,12,07,19.60
2010,07,17,12,08,19.60
2010,07,17,12,09,19.60
2010,07,17,12,10,19.60
2010,07,17,12,11,19.60
2010,07,17,12,12,19.70
2010,07,17,12,13,19.70
2010,07,17,12,14,19.70
2010,07,17,12,15,19.70
2010,07,17,12,16,19.70
2010,07,17,12,17,19.70
2010,07,17,12,18,19.70
2010,07,17,12,19,19.70
2010,07,17,12,20,19.70
2010,07,17,12,21,19.70
2010,07,17,12,22,19.70
2010,07,17,12,23,19.70
2010,07,17,12,24,19.60
2010,07,17,12,25,19.60
2010,07,17,12,26,19.60
2010,07,17,12,27,19.70
2010,07,17,12,28,19.80
2010,07,17,12,29,19.90
2010,07,17,12,30,19.80
2010,07,17,12,31,19.80
2010,07,17,12,32,19.80
2010,07,17,12,33,19.80
2010,07,17,12,34,19.80
2010,07,17,12,35,19.80
2010,07,17,12,36,19.80
2010,07,17,12,37,19.80
2010,07,17,12,38,19.80
2010,07,17,12,39,19.80
2010,07,17,12,40,19.80
2010,07,17,12,41,19.80
2010,07,17,12,42,19.80
2010,07,17,12,43,19.70
2010,07,17,12,44,19.60
2010,07,17,12,45,19.30
2010,07,17,12,46,19.10
2010,07,17,12,47,19.00
2010,07,17,12,48,18.90
2010,07,17,12,49,18.80
2010,07,17,12,50,18.70
2010,07,17,12,51,18.60
2010,07,17,12,52,18.60
2010,07,17,12,53,18.60
2010,07,17,12,54,18.60
2010,07,17,12,55,18.60
2010,07,17,12,56,18.60
2010,07,17,12,57,18.50
2010,07,17,12,58,18.50
2010,07,17,12,59,18.60
2010,07,17,13,00,18.50
2010,07,17,13,01,18.50
2010,07,17,13,02,18.60
2010,07,17,13,03,18.60
2010,07,17,13,04,18.50
2010,07,17,13,05,18.60
2010,07,17,13,06,18.60
2010,07,17,13,07,18.60
2010,07,17,13,08,18.60
2010,07,17,13,09,18.70
2010,07,17,13,10,18.70
2010,07,17,13,11,18.60
2010,07,17,13,12,18.50
2010,07,17,13,13,18.40
2010,07,17,13,14,18.40
2010,07,17,13,15,18.40
2010,07,17,13,16,18.40
2010,07,17,13,17,18.40
2010,07,17,13,18,18.40
2010,07,17,13,19,18.40
2010,07,17,13,20,18.30
2010,07,17,13,21,18.30
2010,07,17,13,22,18.30
2010,07,17,13,23,18.30
2010,07,17,13,24,18.30
2010,07,17,13,25,18.40
2010,07,17,13,26,18.50
2010,07,17,13,27,18.50
2010,07,17,13,28,18.40
2010,07,17,13,29,18.40
2010,07,17,13,30,18.40
2010,07,17,13,31,18.40
2010,07,17,13,32,18.60
2010,07,17,13,33,18.70
2010,07,17,13,34,18.70
2010,07,17,13,35,18.60
2010,07,17,13,36,18.60
2010,07,17,13,37,18.50
2010,07,17,13,38,18.50
2010,07,17,13,39,18.50
2010,07,17,13,40,18.50
2010,07,17,13,41,18.50
2010,07,17,13,42,18.40
2010,07,17,13,43,18.40
2010,07,17,13,44,18.40
2010,07,17,13,45,18.40
2010,07,17,13,46,18.40
2010,07,17,13,47,18.40
2010,07,17,13,48,18.40
2010,07,17,13,49,18.40
2010,07,17,13,50,18.50
2010,07,17,13,51,18.40
2010,07,17,13,52,18.40
2010,07,17,13,53,18.40
2010,07,17,13,54,18.40
2010,07,17,13,55,18.40
2010,07,17,13,56,18.40
2010,07,17,13,57,18.40
2010,07,17,13,58,18.40
2010,07,17,13,59,18.40
2010,07,17,14,00,18.30
2010,07,17,14,01,18.30
2010,07,17,14,02,18.30
2010,07,17,14,03,18.40
2010,07,17,14,04,18.40
2010,07,17,14,05,18.40
2010,07,17,14,06,18.40
2010,07,17,14,07,18.50
2010,07,17,14,08,18.50
2010,07,17,14,09,18.50
2010,07,17,14,10,18.50
2010,07,17,14,11,18.40
2010,07,17,14,12,18.40
2010,07,17,14,13,18.40
2010,07,17,14,14,18.40
2010,07,17,14,15,18.50
2010,07,17,14,16,18.60
2010,07,17,14,17,18.70
2010,07,17,14,18,18.80
2010,07,17,14,19,18.80
2010,07,17,14,20,18.80
2010,07,17,14,21,18.80
2010,07,17,14,22,18.80
2010,07,17,14,23,18.90
2010,07,17,14,24,18.90
2010,07,17,14,25,18.90
2010,07,17,14,26,19.00
2010,07,17,14,27,19.10
2010,07,17,14,28,19.10
2010,07,17,14,29,19.10
2010,07,17,14,30,19.10
2010,07,17,14,31,19.10
2010,07,17,14,32,19.10
2010,07,17,14,33,19.20
2010,07,17,14,34,19.20
2010,07,17,14,35,19.30
2010,07,17,14,36,19.30
2010,07,17,14,37,19.30
2010,07,17,14,38,19.30
2010,07,17,14,39,19.30
2010,07,17,14,40,19.30
2010,07,17,14,41,19.30
2010,07,17,14,42,19.30
2010,07,17,14,43,19.40
2010,07,17,14,44,19.40
2010,07,17,14,45,19.50
2010,07,17,14,46,19.60
2010,07,17,14,47,19.50
2010,07,17,14,48,19.50
2010,07,17,14,49,19.40
2010,07,17,14,50,19.30
2010,07,17,14,51,19.10
2010,07,17,14,52,19.00
2010,07,17,14,53,18.90
2010,07,17,14,54,18.90
2010,07,17,14,55,18.80
2010,07,17,14,56,18.80
2010,07,17,14,57,18.80
2010,07,17,14,58,18.70
2010,07,17,14,59,18.70
2010,07,17,15,00,18.70
2010,07,17,15,01,18.70
2010,07,17,15,02,18.70
2010,07,17,15,03,18.70
2010,07,17,15,04,18.70
2010,07,17,15,05,18.70
2010,07,17,15,06,18.70
2010,07,17,15,07,18.60
2010,07,17,15,08,18.50
2010,07,17,15,09,18.50
2010,07,17,15,10,18.50
2010,07,17,15,11,18.50
2010,07,17,15,12,18.50
2010,07,17,15,13,18.50
2010,07,17,15,14,18.40
2010,07,17,15,15,18.40
2010,07,17,15,16,18.40
2010,07,17,15,17,18.50
2010,07,17,15,18,18.50
2010,07,17,15,19,18.60
2010,07,17,15,20,18.60
2010,07,17,15,21,18.60
2010,07,17,15,22,18.60
2010,07,17,15,23,18.60
2010,07,17,15,24,18.60
2010,07,17,15,25,18.60
2010,07,17,15,26,18.60
2010,07,17,15,27,18.60
2010,07,17,15,28,18.60
2010,07,17,15,29,18.60
2010,07,17,15,30,18.60
2010,07,17,15,31,18.70
2010,07,17,15,32,18.70
2010,07,17,15,33,18.70
2010,07,17,15,34,18.70
2010,07,17,15,35,18.70
2010,07,17,15,36,18.70
2010,07,17,15,37,18.70
2010,07,17,15,38,18.70
2010,07,17,15,39,18.80
2010,07,17,15,40,18.90
2010,07,17,15,41,19.10
2010,07,17,15,42,19.10
2010,07,17,15,43,19.10
2010,07,17,15,44,19.10
2010,07,17,15,45,19.00
2010,07,17,15,46,19.00
2010,07,17,15,47,18.90
2010,07,17,15,48,18.90
2010,07,17,15,49,18.80
2010,07,17,15,50,18.80
2010,07,17,15,51,18.90
2010,07,17,15,52,18.80
2010,07,17,15,53,18.80
2010,07,17,15,54,18.80
2010,07,17,15,55,18.80
2010,07,17,15,56,18.80
2010,07,17,15,57,18.80
2010,07,17,15,58,18.80
2010,07,17,15,59,18.80
2010,07,17,16,00,18.80
2010,07,17,16,01,18.90
2010,07,17,16,02,18.90
2010,07,17,16,03,18.80
2010,07,17,16,04,18.80
2010,07,17,16,05,18.80
2010,07,17,16,06,18.80
2010,07,17,16,07,18.80
2010,07,17,16,08,18.80
2010,07,17,16,09,18.80
2010,07,17,16,10,18.70
2010,07,17,16,11,18.70
2010,07,17,16,12,18.70
2010,07,17,16,13,18.80
2010,07,17,16,14,18.90
2010,07,17,16,15,18.90
2010,07,17,16,16,18.90
2010,07,17,16,17,18.80
2010,07,17,16,18,18.80
2010,07,17,16,19,18.80
2010,07,17,16,20,18.70
2010,07,17,16,21,18.70
2010,07,17,16,22,18.70
2010,07,17,16,23,18.70
2010,07,17,16,24,18.70
2010,07,17,16,25,18.60
2010,07,17,16,26,18.60
2010,07,17,16,27,18.70
2010,07,17,16,28,18.70
2010,07,17,16,29,18.70
2010,07,17,16,30,18.70
2010,07,17,16,31,18.70
2010,07,17,16,32,18.70
2010,07,17,16,33,18.70
2010,07,17,16,34,18.80
2010,07,17,16,35,18.70
2010,07,17,16,36,18.70
2010,07,17,16,37,18.70
2010,07,17,16,38,18.70
2010,07,17,16,39,18.80
2010,07,17,16,40,18.80
2010,07,17,16,41,18.90
2010,07,17,16,42,18.90
2010,07,17,16,43,18.90
2010,07,17,16,44,19.00
2010,07,17,16,45,19.10
2010,07,17,16,46,19.10
2010,07,17,16,47,19.10
2010,07,17,16,48,19.10
2010,07,17,16,49,19.10
2010,07,17,16,50,19.10
2010,07,17,16,51,19.10
2010,07,17,16,52,19.10
2010,07,17,16,53,19.10
2010,07,17,16,54,19.10
2010,07,17,16,55,19.20
2010,07,17,16,56,19.20
2010,07,17,16,57,19.30
2010,07,17,16,58,19.30
2010,07,17,16,59,19.30
2010,07,17,17,00,19.30
2010,07,17,17,01,19.30
2010,07,17,17,02,19.30
2010,07,17,17,03,19.30
2010,07,17,17,04,19.30
2010,07,17,17,05,19.30
2010,07,17,17,06,19.30
2010,07,17,17,07,19.30
2010,07,17,17,08,19.20
2010,07,17,17,09,19.20
2010,07,17,17,10,19.20
2010,07,17,17,11,19.20
2010,07,17,17,12,19.20
2010,07,17,17,13,19.20
2010,07,17,17,14,19.20
2010,07,17,17,15,19.20
2010,07,17,17,16,19.20
2010,07,17,17,17,19.20
2010,07,17,17,18,19.30
2010,07,17,17,19,19.30
2010,07,17,17,20,19.30
2010,07,17,17,21,19.30
2010,07,17,17,22,19.30
2010,07,17,17,23,19.30